KC2DUX Weather Reports


Display with metric or nautical units.
time (UTC)temp
F
wind
direction
speed
MPH
gust
MPH
rain 1hr
in
rain 24hr
in
rain mn
in
humidity
%
barometer
mb
20260502162026 58 236 1.0 6.0 0.00 0.00 0.00 58 1011.9
20260502161524 58 117 1.0 6.0 0.00 0.00 0.00 57 1012.0
20260502161024 58 39 3.0 6.0 0.00 0.00 0.00 55 1012.1
20260502160523 59 296 2.0 5.0 0.00 0.00 0.00 57 1012.1
20260502152017 57 315 1.0 6.0 0.00 0.00 0.00 65 1011.9
20260502151515 57 360 2.0 6.0 0.00 0.00 0.00 66 1012.0
20260502151016 56 5 0.0 5.0 0.00 0.00 0.00 67 1012.1
20260502150514 56 261 1.0 6.0 0.00 0.00 0.00 65 1012.0
20260502130501 55 35 1.0 10.0 0.00 0.00 0.00 72 1012.3
20260502123556 53 302 2.0 9.0 0.00 0.00 0.00 76 1012.3
20260502123056 53 17 2.0 9.0 0.00 0.00 0.00 76 1012.3
20260502122554 53 261 1.0 10.0 0.00 0.00 0.00 77 1012.3
20260502122054 53 360 2.0 10.0 0.00 0.00 0.00 77 1012.4
20260502121553 53 302 2.0 9.0 0.00 0.00 0.00 78 1012.5
20260502121052 53 40 2.0 9.0 0.00 0.00 0.00 78 1012.5
20260502120551 53 293 3.0 8.0 0.00 0.00 0.00 79 1012.4
20260502115549 52 257 1.0 5.0 0.00 0.00 0.00 80 1012.3
20260502115048 52 309 2.0 8.0 0.00 0.00 0.00 80 1012.3
20260502114548 52 331 1.0 8.0 0.00 0.00 0.00 81 1012.2
20260502114047 52 325 0.0 7.0 0.00 0.00 0.00 81 1012.3
20260502113546 51 229 1.0 7.0 0.00 0.00 0.00 82 1012.2
20260502113050 51 265 1.0 4.0 0.00 0.00 0.00 82 1012.2
20260502112545 51 301 1.0 4.0 0.00 0.00 0.00 82 1012.2
20260502112044 51 242 0.0 5.0 0.00 0.00 0.00 83 1012.2
20260502111542 51 319 0.0 5.0 0.00 0.00 0.00 83 1012.2
20260502111042 51 308 1.0 7.0 0.00 0.00 0.00 83 1012.2
20260502110541 51 269 2.0 7.0 0.00 0.00 0.00 83 1012.2
20260502110043 51 263 0.0 3.0 0.00 0.00 0.00 84 1012.2
20260502105541 51 254 0.0 3.0 0.00 0.00 0.00 84 1012.1
20260502105038 51 259 0.0 4.0 0.00 0.00 0.00 84 1012.1
20260502104539 50 261 0.0 3.0 0.00 0.00 0.00 85 1012.0
20260502104036 50 265 1.0 4.0 0.00 0.00 0.00 85 1011.9
20260502103535 50 259 1.0 4.0 0.00 0.00 0.00 85 1011.9
20260502101601 50 277 0.0 2.0 0.00 0.00 0.00 84 1011.6
20260502101043 50 277 0.0 2.0 0.00 0.00 0.00 84 1011.5
20260502100543 50 277 0.0 3.0 0.00 0.00 0.00 84 1011.5
20260502091043 51 281 1.0 5.0 0.00 0.00 0.00 83 1011.7
20260502090543 51 232 2.0 5.0 0.00 0.00 0.00 84 1011.7
20260502071526 49 227 0.0 1.0 0.00 0.00 0.00 84 1011.7
20260502071028 50 223 0.0 2.0 0.00 0.00 0.00 83 1011.8
20260502070526 50 223 0.0 3.0 0.00 0.00 0.00 84 1011.7
20260502070038 50 215 1.0 3.0 0.00 0.00 0.00 84 1011.8
20260502065525 50 241 1.0 3.0 0.00 0.00 0.00 84 1012.0
20260502065028 50 264 0.0 4.0 0.00 0.00 0.00 84 1011.8
20260502064525 50 213 0.0 5.0 0.00 0.00 0.00 83 1011.7
20260502064023 50 198 2.0 5.0 0.00 0.00 0.00 83 1011.8
20260502063523 50 224 1.0 3.0 0.00 0.00 0.00 83 1012.0
20260502063029 50 222 1.0 3.0 0.00 0.00 0.00 83 1012.0
20260502062523 50 220 1.0 4.0 0.00 0.00 0.00 83 1012.1
20260502062024 50 222 2.0 5.0 0.00 0.00 0.00 84 1012.1
20260502061522 50 208 2.0 5.0 0.00 0.00 0.00 84 1012.0
20260502061021 49 202 1.0 3.0 0.00 0.00 0.00 84 1012.0
20260502060521 49 218 0.0 3.0 0.00 0.00 0.00 84 1012.0
20260502060034 49 179 0.0 4.0 0.00 0.00 0.00 83 1012.1
20260502055519 50 219 1.0 4.0 0.00 0.00 0.00 83 1012.3
20260502055019 50 195 0.0 3.0 0.00 0.00 0.00 82 1012.4
20260502054531 50 190 1.0 5.0 0.00 0.00 0.00 83 1012.4
20260502054020 50 219 3.0 5.0 0.00 0.00 0.00 83 1012.4
20260502053517 50 218 1.0 5.0 0.00 0.00 0.00 82 1012.4
20260502053017 50 207 1.0 5.0 0.00 0.00 0.00 82 1012.5
20260502052519 50 210 1.0 4.0 0.00 0.00 0.00 82 1012.5
20260502052016 50 198 2.0 4.0 0.00 0.00 0.00 82 1012.6
20260502051515 50 239 1.0 4.0 0.00 0.00 0.00 82 1012.6
20260502051020 50 207 1.0 6.0 0.00 0.00 0.00 82 1012.7
20260502050514 50 229 1.0 7.0 0.00 0.00 0.00 81 1012.7
20260502050020 51 207 3.0 7.0 0.00 0.00 0.00 81 1012.7
20260502045513 51 201 2.0 6.0 0.00 0.00 0.00 81 1012.8
20260502045015 51 231 3.0 6.0 0.00 0.00 0.00 81 1012.9
20260502044516 51 215 3.0 9.0 0.00 0.00 0.00 81 1012.8
20260502044010 51 221 2.0 9.0 0.00 0.00 0.00 81 1012.8
20260502043513 51 216 3.0 6.0 0.00 0.00 0.00 81 1012.8
20260502043009 51 223 2.0 6.0 0.00 0.00 0.00 81 1012.7
20260502042509 51 229 2.0 8.0 0.00 0.00 0.00 80 1012.6
20260502042009 51 220 4.0 8.0 0.00 0.00 0.00 81 1012.6
20260502041520 51 216 3.0 8.0 0.00 0.00 0.00 81 1012.8
20260502041008 51 230 4.0 8.0 0.00 0.00 0.00 80 1012.7
20260502040506 51 200 2.0 7.0 0.00 0.00 0.00 80 1012.6
20260502040005 51 217 3.0 7.0 0.00 0.00 0.00 81 1012.6
20260502035505 51 244 3.0 9.0 0.00 0.00 0.00 81 1012.5
20260502035005 51 222 4.0 10.0 0.00 0.00 0.00 81 1012.5
20260502034507 51 196 5.0 10.0 0.00 0.00 0.00 81 1012.4
20260502034007 51 194 4.0 9.0 0.00 0.00 0.00 82 1012.3
20260502033505 51 220 4.0 9.0 0.00 0.00 0.00 82 1012.3
20260502033006 51 218 4.0 7.0 0.00 0.00 0.00 82 1012.2
20260502032504 51 221 3.0 9.0 0.00 0.00 0.00 81 1012.2
20260502032005 51 211 5.0 9.0 0.00 0.00 0.00 82 1012.2
20260502031503 51 219 5.0 9.0 0.00 0.00 0.00 82 1012.1
20260502031003 51 229 4.0 9.0 0.00 0.00 0.00 82 1012.2
20260502030502 51 211 3.0 8.0 0.00 0.00 0.00 82 1012.3
20260502030003 51 231 3.0 8.0 0.00 0.00 0.00 82 1012.4
20260502025503 51 218 3.0 6.0 0.00 0.00 0.00 82 1012.5
20260502025004 51 207 3.0 7.0 0.00 0.00 0.00 82 1012.5
20260502024502 51 201 3.0 5.0 0.00 0.00 0.00 82 1012.5
20260502024003 51 216 1.0 4.0 0.00 0.00 0.00 82 1012.7
20260502023502 51 196 1.0 5.0 0.00 0.00 0.00 82 1012.7
20260502023007 51 229 2.0 5.0 0.00 0.00 0.00 82 1012.9
20260502022503 51 200 1.0 5.0 0.00 0.00 0.00 81 1012.9
20260502022002 51 214 2.0 5.0 0.00 0.00 0.00 81 1013.1
20260502021601 52 188 1.0 7.0 0.00 0.00 0.00 80 1013.0
20260502021003 52 212 3.0 7.0 0.00 0.00 0.00 81 1013.0
20260502020501 52 198 3.0 7.0 0.00 0.00 0.00 81 1012.9
20260502020104 52 196 3.0 7.0 0.00 0.00 0.00 80 1012.9
20260502015602 52 215 3.0 9.0 0.00 0.00 0.00 80 1012.8
20260502015100 52 234 4.0 9.0 0.00 0.00 0.00 80 1012.8
20260502014607 52 221 4.0 8.0 0.00 0.00 0.00 80 1012.7
20260502014059 52 222 4.0 10.0 0.00 0.00 0.00 79 1012.6
20260502013559 52 204 5.0 10.0 0.00 0.00 0.00 80 1012.5
20260502013103 52 166 5.0 11.0 0.00 0.00 0.00 79 1012.5
20260502012559 52 219 5.0 11.0 0.00 0.00 0.00 79 1012.5
20260502012059 52 208 5.0 9.0 0.00 0.00 0.00 79 1012.5
20260502011608 52 221 3.0 9.0 0.00 0.00 0.00 79 1012.4
20260502011058 52 230 3.0 8.0 0.00 0.00 0.00 79 1012.4
20260502010558 52 219 3.0 8.0 0.00 0.00 0.00 79 1012.4
20260502010100 52 246 2.0 7.0 0.00 0.00 0.00 79 1012.4
20260502005558 51 213 3.0 7.0 0.00 0.00 0.00 78 1012.4
20260502005101 51 221 2.0 5.0 0.00 0.00 0.00 78 1012.4
20260502004557 51 235 2.0 5.0 0.00 0.00 0.00 78 1012.3
20260502004056 51 211 2.0 5.0 0.00 0.00 0.00 78 1012.3
20260502003556 51 210 2.0 5.0 0.00 0.00 0.00 77 1012.2
20260502003057 51 173 2.0 5.0 0.00 0.00 0.00 77 1012.2
20260502002601 51 218 1.0 5.0 0.00 0.00 0.00 76 1012.2
20260502002056 52 176 0.0 5.0 0.00 0.00 0.00 75 1012.1
20260502001601 52 182 1.0 4.0 0.00 0.00 0.00 75 1012.2
20260502001055 52 214 0.0 5.0 0.00 0.00 0.00 74 1012.1
20260502000555 52 198 0.0 5.0 0.00 0.00 0.00 73 1012.2
20260502000106 52 212 2.0 6.0 0.00 0.00 0.00 72 1012.2
20260501235555 53 143 1.0 8.0 0.00 0.00 0.00 72 1012.1
20260501235054 53 220 1.0 5.0 0.00 0.00 0.00 70 1012.0
20260501234554 53 222 1.0 8.0 0.00 0.00 0.00 70 1012.0
20260501234055 53 205 3.0 8.0 0.00 0.00 0.00 69 1011.9
20260501233554 53 220 3.0 11.0 0.00 0.00 0.00 68 1011.9
20260501233112 54 206 3.0 11.0 0.00 0.00 0.00 67 1011.8
20260501232554 54 190 2.0 7.0 0.00 0.00 0.00 66 1011.8
20260501232053 54 207 2.0 7.0 0.00 0.00 0.00 64 1011.7
20260501231618 55 145 2.0 10.0 0.00 0.00 0.00 63 1011.8
20260501231052 55 224 5.0 10.0 0.00 0.00 0.00 61 1011.8
20260501230553 55 108 4.0 11.0 0.00 0.00 0.00 59 1011.7
20260501230118 55 188 6.0 11.0 0.00 0.00 0.00 58 1011.5
20260501225553 56 218 5.0 12.0 0.00 0.00 0.00 57 1011.6
20260501225054 56 196 4.0 12.0 0.00 0.00 0.00 57 1011.6
20260501224557 56 229 6.0 11.0 0.00 0.00 0.00 57 1011.7
20260501224052 56 239 4.0 9.0 0.00 0.00 0.00 58 1011.7
20260501223553 57 228 3.0 12.0 0.00 0.00 0.00 59 1011.6
20260501223055 57 245 5.0 12.0 0.00 0.00 0.00 57 1011.6
20260501222552 57 205 5.0 10.0 0.00 0.00 0.00 59 1011.7
20260501222050 57 231 4.0 11.0 0.00 0.00 0.00 58 1011.7
20260501221607 57 240 6.0 16.0 0.00 0.00 0.00 58 1011.7
20260501221050 57 166 8.0 17.0 0.00 0.00 0.00 54 1011.8
20260501220550 58 218 5.0 15.0 0.00 0.00 0.00 49 1011.9
20260501220100 59 216 6.0 15.0 0.00 0.00 0.00 48 1011.8
20260501215550 60 192 4.0 11.0 0.00 0.00 0.00 48 1011.8
20260501215050 60 181 3.0 11.0 0.00 0.00 0.00 49 1011.8
20260501214550 60 220 3.0 10.0 0.00 0.00 0.00 48 1011.9
20260501214053 60 198 5.0 11.0 0.00 0.00 0.00 51 1011.9
20260501213549 60 200 5.0 14.0 0.00 0.00 0.00 50 1011.9
20260501213051 60 200 8.0 16.0 0.00 0.00 0.00 52 1011.8
20260501212549 60 230 7.0 16.0 0.00 0.00 0.00 49 1011.8
20260501212051 62 200 5.0 10.0 0.00 0.00 0.00 48 1011.8
20260501211549 62 196 5.0 10.0 0.00 0.00 0.00 46 1011.7
20260501211049 62 210 6.0 11.0 0.00 0.00 0.00 46 1011.7
20260501210548 62 296 2.0 7.0 0.00 0.00 0.00 50 1011.7
20260501210048 62 281 3.0 11.0 0.00 0.00 0.00 50 1011.8
20260501205550 62 227 4.0 11.0 0.00 0.00 0.00 49 1011.8
20260501205048 62 229 4.0 9.0 0.00 0.00 0.00 49 1011.7
20260501204548 62 211 5.0 9.0 0.00 0.00 0.00 46 1011.6
20260501204049 62 236 5.0 10.0 0.00 0.00 0.00 45 1011.6
20260501203547 62 224 5.0 10.0 0.00 0.00 0.00 44 1011.6
20260501203047 62 269 4.0 12.0 0.00 0.00 0.00 44 1011.7
20260501202548 62 225 4.0 12.0 0.00 0.00 0.00 45 1011.7
20260501202046 62 229 6.0 10.0 0.00 0.00 0.00 43 1011.8
20260501201546 63 289 3.0 9.0 0.00 0.00 0.00 44 1011.8
20260501201045 62 201 5.0 10.0 0.00 0.00 0.00 41 1011.8
20260501200545 63 268 5.0 9.0 0.00 0.00 0.00 42 1011.9
20260501200045 62 309 3.0 9.0 0.00 0.00 0.00 44 1012.0
20260501195545 62 240 6.0 12.0 0.00 0.00 0.00 42 1012.0
20260501195047 62 228 5.0 12.0 0.00 0.00 0.00 43 1012.0
20260501194545 62 223 4.0 13.0 0.00 0.00 0.00 42 1012.0
20260501194045 62 241 6.0 13.0 0.00 0.00 0.00 42 1012.1
20260501193546 62 254 5.0 12.0 0.00 0.00 0.00 43 1012.1
20260501193043 62 246 4.0 11.0 0.00 0.00 0.00 40 1012.1
20260501192542 62 233 6.0 10.0 0.00 0.00 0.00 41 1012.2
20260501192041 62 196 6.0 11.0 0.00 0.00 0.00 42 1012.3
20260501191541 61 271 7.0 13.0 0.00 0.00 0.00 40 1012.3
20260501191044 61 242 6.0 14.0 0.00 0.00 0.00 40 1012.4
20260501190540 61 281 6.0 14.0 0.00 0.00 0.00 44 1012.5
20260501190039 61 232 5.0 14.0 0.00 0.00 0.00 41 1012.6
20260501185538 61 250 6.0 11.0 0.00 0.00 0.00 42 1012.6
20260501185038 61 225 7.0 15.0 0.00 0.00 0.00 42 1012.6
20260501184538 61 221 6.0 15.0 0.00 0.00 0.00 43 1012.7
20260501184038 61 290 5.0 12.0 0.00 0.00 0.00 40 1012.6
20260501183538 61 241 7.0 14.0 0.00 0.00 0.00 44 1012.7
20260501183038 61 229 6.0 14.0 0.00 0.00 0.00 45 1012.8
20260501182535 60 194 5.0 10.0 0.00 0.00 0.00 46 1012.8
20260501182037 60 233 5.0 11.0 0.00 0.00 0.00 45 1012.8
20260501181534 60 238 7.0 11.0 0.00 0.00 0.00 46 1012.9
20260501181034 60 210 7.0 10.0 0.00 0.00 0.00 46 1012.9
20260501180536 60 233 6.0 13.0 0.00 0.00 0.00 47 1012.8
20260501180035 60 242 6.0 13.0 0.00 0.00 0.00 47 1012.7
20260501175534 59 224 6.0 14.0 0.00 0.00 0.00 48 1012.7
20260501175034 59 211 5.0 14.0 0.00 0.00 0.00 48 1012.7
20260501174537 59 222 6.0 11.0 0.00 0.00 0.00 49 1012.8
20260501174032 59 241 6.0 11.0 0.00 0.00 0.00 52 1012.8
20260501173531 58 261 5.0 14.0 0.00 0.00 0.00 50 1012.8
20260501173031 59 226 8.0 14.0 0.00 0.00 0.00 48 1012.8
20260501172531 59 255 5.0 13.0 0.00 0.00 0.00 50 1013.0
20260501172030 58 200 7.0 14.0 0.00 0.00 0.00 50 1013.0
20260501171529 58 236 6.0 16.0 0.00 0.00 0.00 51 1013.1
20260501171029 58 215 7.0 16.0 0.00 0.00 0.00 51 1013.1
20260501170529 58 245 6.0 13.0 0.00 0.00 0.00 52 1013.2
20260501170028 58 234 7.0 11.0 0.00 0.00 0.00 54 1013.2
20260501165528 58 246 7.0 12.0 0.00 0.00 0.00 53 1013.3
20260501165028 58 281 6.0 13.0 0.00 0.00 0.00 55 1013.3
20260501164535 58 265 6.0 13.0 0.00 0.00 0.00 56 1013.3
20260501164027 58 246 6.0 12.0 0.00 0.00 0.00 55 1013.3
20260501163527 57 221 7.0 15.0 0.00 0.00 0.00 52 1013.4
20260501163027 57 246 6.0 15.0 0.00 0.00 0.00 53 1013.5
20260501162527 58 232 8.0 13.0 0.00 0.00 0.00 53 1013.5